Location: Friaudour
(46.0460°N, 1.2873°E)
Time: 10:48:13
(UTC+00:00)

Cosmos 2082 Rocket - Pass Details

Date: 14 July 2020
Orbit: 833 x 853 km, 71.0° (Epoch: 05 August)

Event Time Altitude Azimuth Distance (km) Brightness Sun altitude
Exits shadow 02:22:37 21° 196° (SSW) 1,821 3.4 -15.1°
Maximum altitude 02:26:31 76° 114° (ESE) 882 2.3 -14.7°
Drops below altitude 10° 02:32:14 10° 29° (NNE) 2,488 6.1 -14.1°
Sets 02:34:42 0° 28° (NNE) 3,426 7.2 -13.9°
